Weather History for Tupelo, MS

Change the Weather History Date:

Saturday, February 22, 2014

  Actual Average Record
Temperature  
Mean Temperature 49 °F 48 °F  
Max Temperature 64 °F 59 °F 78 °F (1980)
Min Temperature 33 °F 37 °F 8 °F (1963)
Degree Days  
Heating Degree Days 16 17  
Month to date heating degree days 491 437  
Since 1 July heating degree days 2698 2333  
Cooling Degree Days 0 0  
Month to date cooling degree days 0 0  
Year to date cooling degree days 0 1  
Moisture  
Dew Point 32 °F    
Average Humidity 59    
Maximum Humidity 89    
Minimum Humidity 29    
Precipitation  
Precipitation 0.00 in 0.20 in 1.42 in (1991)
Month to date precipitation 4.00 3.81  
Year to date precipitation 5.77 8.29  
Snow  
Snow 0.00 in 0.00 in T in (1989)
Month to date snowfall 0.5 0.5  
Since 1 July snowfall 0.5 1.7  
Snow Depth 0.00 in    
Sea Level Pressure  
Sea Level Pressure 30.07 in    
Wind  
Wind Speed 7 mph (SSW)    
Max Wind Speed 18 mph    
Max Gust Speed 23 mph    
Visibility 10 miles    
Events      
T = Trace of Precipitation, MM = Missing Value Source: NWS Daily Summary

Daily Weather History Graph

Daily Weather History Graph

Search for Another Location

Airport:

Trip Planner

Search our weather history database for the weather conditions in past years. The results will help you decide how hot, cold, wet, or windy it might be!

Date:

Astronomy

Feb. 22, 2014 Rise Set
Actual Time 6:32 AM CST 5:45 PM CST
Civil Twilight 6:06 AM CST 6:10 PM CST
Nautical Twilight 5:37 AM CST 6:39 PM CST
Astronomical Twilight 5:08 AM CST 7:08 PM CST
Moon 12:21 AM CST 11:02 AM CST
Length of Visible Light 12h 03m
Length of Day
11h 12m
Waning Gibbous, 50% of the Moon is Illuminated
Feb 22
Waning Gibbous
Mar 1
New
Mar 8
First Quarter
Mar 16
Full
Mar 23
Last Quarter

Hourly Weather History & Observations

Time (CST) Temp. Windchill Dew Point Humidity Pressure Visibility Wind Dir Wind Speed Gust Speed Precip Events Conditions
12:53 AM 36.0 °F - 30.0 °F 79% 30.14 in 10.0 mi Calm Calm - N/A   Clear
1:53 AM 36.0 °F - 30.9 °F 82% 30.14 in 10.0 mi Calm Calm - N/A   Clear
2:53 AM 37.9 °F - 30.9 °F 76% 30.13 in 10.0 mi Calm Calm - N/A   Clear
3:53 AM 36.0 °F - 30.9 °F 82% 30.11 in 10.0 mi Calm Calm - N/A   Clear
4:53 AM 35.1 °F - 30.9 °F 85% 30.13 in 10.0 mi Calm Calm - N/A   Clear
5:53 AM 34.0 °F - 30.9 °F 89% 30.13 in 10.0 mi Calm Calm - N/A   Clear
6:53 AM 34.0 °F 29.8 °F 30.9 °F 89% 30.15 in 10.0 mi SW 4.6 mph - N/A   Clear
7:53 AM 37.0 °F 34.5 °F 33.1 °F 86% 30.15 in 10.0 mi SSW 3.5 mph - N/A   Clear
8:53 AM 46.0 °F 43.9 °F 35.1 °F 66% 30.15 in 10.0 mi SW 4.6 mph - N/A   Clear
9:53 AM 53.1 °F - 33.1 °F 47% 30.14 in 10.0 mi SSW 10.4 mph - N/A   Clear
10:53 AM 57.9 °F - 33.1 °F 39% 30.14 in 10.0 mi SW 12.7 mph - N/A   Clear
11:53 AM 60.1 °F - 30.9 °F 33% 30.10 in 10.0 mi SW 10.4 mph - N/A   Clear
12:53 PM 62.1 °F - 32.0 °F 32% 30.07 in 10.0 mi South 15.0 mph - N/A   Clear
1:53 PM 63.0 °F - 32.0 °F 31% 30.03 in 10.0 mi South 13.8 mph - N/A   Clear
2:53 PM 63.0 °F - 30.0 °F 29% 30.02 in 10.0 mi SSW 17.3 mph 23.0 mph N/A   Clear
3:53 PM 63.0 °F - 30.9 °F 30% 30.01 in 10.0 mi SSW 13.8 mph - N/A   Clear
4:53 PM 60.1 °F - 28.9 °F 31% 30.01 in 10.0 mi SSW 12.7 mph - N/A   Clear
5:53 PM 55.0 °F - 30.0 °F 38% 30.01 in 10.0 mi South 6.9 mph - N/A   Clear
6:53 PM 53.1 °F - 30.9 °F 43% 30.00 in 10.0 mi SSW 9.2 mph - N/A   Clear
7:53 PM 51.1 °F - 32.0 °F 48% 30.00 in 10.0 mi SSW 9.2 mph - N/A   Clear
8:53 PM 48.9 °F - 33.1 °F 54% 30.00 in 10.0 mi SSW 6.9 mph - N/A   Mostly Cloudy
9:53 PM 51.1 °F - 33.1 °F 50% 30.01 in 10.0 mi SSW 3.5 mph - N/A   Overcast
10:53 PM 48.9 °F - 35.1 °F 59% 30.00 in 10.0 mi SSW 6.9 mph - N/A   Overcast
11:53 PM 48.0 °F - 34.0 °F 58% 30.01 in 10.0 mi SSW 5.8 mph - N/A   Overcast